When you browse on this site, cookies collect data to enhance your experience and personalize the content and advertising you see.
Visit our Privacy Policy to learn more. By continuing to use the site, you agree to this use of cookies and data.
  • în România
  • Lista ţărilor
  • Pe 7 zile
  • Temperatura apei
  • Meteo pe hartă
  • Widget-uri
  • user-avatar
    Intrare

    Meteo pe oră la Sacapa

    Astăzi, 12 Decembrie, Joi

    Timp Temperatura Precipitaţii Vânt Presiune Umiditate
    00:00 +20°C° 0 mm 1 m/s 699 mmHg 97%
    01:00 +20°C° 0 mm 1 m/s 699 mmHg 96%
    02:00 +20°C° 0 mm 1 m/s 698 mmHg 96%
    03:00 +20°C° 0 mm 1 m/s 698 mmHg 96%
    04:00 +19°C° 0 mm 1 m/s 698 mmHg 96%
    05:00 +19°C° 0 mm 1 m/s 698 mmHg 96%
    06:00 +19°C° 0 mm 1 m/s 698 mmHg 96%
    07:00 +21°C° 0.1 mm 1 m/s 699 mmHg 91%
    08:00 +22°C° 0.1 mm 1 m/s 699 mmHg 86%
    09:00 +24°C° 0.1 mm 1 m/s 700 mmHg 81%
    10:00 +25°C° 0.1 mm 2 m/s 700 mmHg 74%
    11:00 +26°C° 0.1 mm 2 m/s 699 mmHg 67%
    12:00 +28°C° 0.1 mm 2 m/s 699 mmHg 60%
    13:00 +28°C° 0.1 mm 2 m/s 698 mmHg 61%
    14:00 +27°C° 0.1 mm 2 m/s 698 mmHg 61%
    15:00 +27°C° 0.1 mm 3 m/s 697 mmHg 61%
    16:00 +25°C° 0 mm 2 m/s 697 mmHg 71%
    17:00 +23°C° 0 mm 2 m/s 697 mmHg 81%
    18:00 +21°C° 0 mm 1 m/s 697 mmHg 90%
    19:00 +21°C° 0 mm 1 m/s 697 mmHg 92%
    20:00 +20°C° 0 mm 1 m/s 698 mmHg 95%
    21:00 +19°C° 0 mm 1 m/s 698 mmHg 97%
    22:00 +19°C° 0 mm 1 m/s 698 mmHg 97%
    23:00 +19°C° 0 mm 1 m/s 698 mmHg 97%

    Mâine, 13 Decembrie, Vineri

    Timp Temperatura Precipitaţii Vânt Presiune Umiditate
    00:00 +17°C° 0 mm 0 m/s 698 mmHg 97%
    01:00 +16°C° 0 mm 0 m/s 697 mmHg 97%
    02:00 +18°C° 0 mm 1 m/s 697 mmHg 96%
    03:00 +18°C° 0 mm 1 m/s 696 mmHg 96%
    04:00 +16°C° 0 mm 0 m/s 697 mmHg 96%
    05:00 +16°C° 0 mm 0 m/s 697 mmHg 96%
    06:00 +16°C° 0 mm 0 m/s 697 mmHg 95%
    07:00 +18°C° 0 mm 0 m/s 697 mmHg 87%
    08:00 +20°C° 0 mm 0 m/s 698 mmHg 79%
    09:00 +22°C° 0 mm 0 m/s 699 mmHg 71%
    10:00 +25°C° 0 mm 1 m/s 698 mmHg 66%
    11:00 +27°C° 0 mm 1 m/s 698 mmHg 60%
    12:00 +28°C° 0 mm 1 m/s 698 mmHg 54%
    13:00 +28°C° 0 mm 2 m/s 697 mmHg 55%
    14:00 +28°C° 0 mm 2 m/s 696 mmHg 55%
    15:00 +28°C° 0 mm 2 m/s 696 mmHg 55%
    16:00 +26°C° 0 mm 2 m/s 696 mmHg 65%
    17:00 +24°C° 0 mm 1 m/s 696 mmHg 74%
    18:00 +22°C° 0 mm 1 m/s 695 mmHg 84%
    19:00 +21°C° 0 mm 1 m/s 696 mmHg 87%
    20:00 +20°C° 0 mm 1 m/s 696 mmHg 90%
    21:00 +20°C° 0 mm 1 m/s 697 mmHg 93%
    22:00 +18°C° 0 mm 0 m/s 697 mmHg 94%
    23:00 +17°C° 0 mm 0 m/s 696 mmHg 95%

    Poimâine, 14 Decembrie, Sâmbătă

    Timp Temperatura Precipitaţii Vânt Presiune Umiditate
    00:00 +17°C° 0 mm 0 m/s 696 mmHg 96%
    01:00 +17°C° 0 mm 0 m/s 696 mmHg 96%
    02:00 +17°C° 0 mm 0 m/s 696 mmHg 96%
    03:00 +17°C° 0 mm 0 m/s 695 mmHg 97%
    04:00 +17°C° 0 mm 0 m/s 696 mmHg 96%
    05:00 +16°C° 0 mm 0 m/s 696 mmHg 96%
    06:00 +16°C° 0 mm 0 m/s 696 mmHg 95%
    07:00 +19°C° 0 mm 0 m/s 697 mmHg 86%
    08:00 +21°C° 0 mm 0 m/s 697 mmHg 78%
    09:00 +23°C° 0 mm 0 m/s 698 mmHg 69%
    10:00 +26°C° 0 mm 1 m/s 698 mmHg 65%
    11:00 +27°C° 0 mm 1 m/s 697 mmHg 62%
    12:00 +28°C° 0 mm 1 m/s 697 mmHg 58%
    13:00 +28°C° 0 mm 2 m/s 696 mmHg 59%
    14:00 +28°C° 0 mm 2 m/s 696 mmHg 60%
    15:00 +28°C° 0 mm 2 m/s 695 mmHg 61%
    16:00 +26°C° 0.2 mm 2 m/s 695 mmHg 71%
    17:00 +24°C° 0.2 mm 1 m/s 696 mmHg 81%
    18:00 +22°C° 0.2 mm 1 m/s 696 mmHg 90%
    19:00 +21°C° 0 mm 1 m/s 696 mmHg 92%
    20:00 +21°C° 0 mm 1 m/s 697 mmHg 94%
    21:00 +20°C° 0 mm 1 m/s 697 mmHg 97%
    22:00 +20°C° 0 mm 1 m/s 697 mmHg 97%
    23:00 +19°C° 0 mm 1 m/s 697 mmHg 97%

    15 Decembrie, Duminică

    Timp Temperatura Precipitaţii Vânt Presiune Umiditate
    00:00 +17°C° 0 mm 0 m/s 696 mmHg 98%
    01:00 +17°C° 0 mm 0 m/s 696 mmHg 97%
    02:00 +17°C° 0 mm 0 m/s 696 mmHg 97%
    03:00 +17°C° 0 mm 0 m/s 696 mmHg 97%
    04:00 +16°C° 0 mm 0 m/s 696 mmHg 97%
    05:00 +16°C° 0 mm 0 m/s 696 mmHg 97%
    06:00 +16°C° 0 mm 0 m/s 697 mmHg 97%
    07:00 +18°C° 0 mm 0 m/s 697 mmHg 90%
    08:00 +20°C° 0 mm 0 m/s 698 mmHg 82%
    09:00 +22°C° 0 mm 0 m/s 699 mmHg 75%
    10:00 +26°C° 0 mm 1 m/s 698 mmHg 65%
    11:00 +27°C° 0 mm 1 m/s 698 mmHg 56%
    12:00 +29°C° 0 mm 1 m/s 698 mmHg 46%
    13:00 +29°C° 0 mm 1 m/s 697 mmHg 47%
    14:00 +28°C° 0 mm 2 m/s 696 mmHg 48%
    15:00 +28°C° 0 mm 2 m/s 696 mmHg 49%
    16:00 +26°C° 0 mm 2 m/s 696 mmHg 61%
    17:00 +24°C° 0 mm 1 m/s 696 mmHg 73%
    18:00 +21°C° 0 mm 1 m/s 695 mmHg 85%
    19:00 +21°C° 0 mm 1 m/s 696 mmHg 89%
    20:00 +20°C° 0 mm 1 m/s 696 mmHg 92%
    21:00 +19°C° 0 mm 1 m/s 697 mmHg 96%
    22:00 +17°C° 0 mm 0 m/s 697 mmHg 96%
    23:00 +17°C° 0 mm 0 m/s 697 mmHg 96%

    16 Decembrie, Luni

    Timp Temperatura Precipitaţii Vânt Presiune Umiditate
    00:00 +17°C° 0 mm 0 m/s 696 mmHg 97%
    01:00 +17°C° 0 mm 0 m/s 696 mmHg 96%
    02:00 +17°C° 0 mm 0 m/s 696 mmHg 96%
    03:00 +17°C° 0 mm 0 m/s 696 mmHg 96%
    04:00 +16°C° 0 mm 0 m/s 696 mmHg 96%
    05:00 +16°C° 0 mm 0 m/s 696 mmHg 96%
    06:00 +16°C° 0 mm 0 m/s 696 mmHg 96%
    07:00 +18°C° 0 mm 0 m/s 697 mmHg 87%
    08:00 +20°C° 0 mm 0 m/s 697 mmHg 77%
    09:00 +23°C° 0 mm 0 m/s 698 mmHg 68%
    10:00 +25°C° 0 mm 0 m/s 698 mmHg 61%
    11:00 +27°C° 0 mm 0 m/s 698 mmHg 54%
    12:00 +31°C° 0 mm 1 m/s 697 mmHg 48%
    13:00 +30°C° 0 mm 1 m/s 697 mmHg 48%
    14:00 +30°C° 0 mm 1 m/s 696 mmHg 48%
    15:00 +30°C° 0 mm 1 m/s 695 mmHg 49%
    16:00 +28°C° 0 mm 1 m/s 695 mmHg 59%
    17:00 +25°C° 0 mm 1 m/s 695 mmHg 70%
    18:00 +23°C° 0 mm 1 m/s 695 mmHg 81%
    19:00 +22°C° 0 mm 1 m/s 695 mmHg 85%
    20:00 +22°C° 0 mm 1 m/s 696 mmHg 88%
    21:00 +19°C° 0 mm 0 m/s 696 mmHg 92%
    22:00 +19°C° 0 mm 0 m/s 696 mmHg 93%
    23:00 +18°C° 0 mm 0 m/s 696 mmHg 95%

    17 Decembrie, Marţi

    Timp Temperatura Precipitaţii Vânt Presiune Umiditate
    00:00 +18°C° 0 mm 0 m/s 696 mmHg 96%
    01:00 +18°C° 0 mm 0 m/s 695 mmHg 96%
    02:00 +18°C° 0 mm 0 m/s 695 mmHg 96%
    03:00 +17°C° 0 mm 0 m/s 695 mmHg 96%
    04:00 +17°C° 0 mm 0 m/s 695 mmHg 96%
    05:00 +17°C° 0 mm 0 m/s 695 mmHg 96%
    06:00 +17°C° 0 mm 0 m/s 695 mmHg 96%
    07:00 +19°C° 0 mm 0 m/s 696 mmHg 87%
    08:00 +21°C° 0 mm 0 m/s 696 mmHg 79%
    09:00 +24°C° 0 mm 0 m/s 697 mmHg 70%
    10:00 +26°C° 0 mm 0 m/s 697 mmHg 63%
    11:00 +29°C° 0 mm 1 m/s 696 mmHg 57%
    12:00 +31°C° 0 mm 1 m/s 696 mmHg 50%
    13:00 +31°C° 0.1 mm 1 m/s 696 mmHg 51%
    14:00 +31°C° 0.1 mm 1 m/s 695 mmHg 52%
    15:00 +30°C° 0.1 mm 1 m/s 694 mmHg 53%
    16:00 +28°C° 0.3 mm 1 m/s 694 mmHg 64%
    17:00 +26°C° 0.3 mm 1 m/s 695 mmHg 75%
    18:00 +23°C° 0.3 mm 1 m/s 695 mmHg 86%
    19:00 +23°C° 0.4 mm 1 m/s 695 mmHg 88%
    20:00 +22°C° 0.4 mm 1 m/s 696 mmHg 91%
    21:00 +21°C° 0.4 mm 1 m/s 696 mmHg 93%
    22:00 +21°C° 0.1 mm 1 m/s 696 mmHg 94%
    23:00 +21°C° 0.1 mm 1 m/s 696 mmHg 94%
    Arată mai mult